Time,TemperatureF,DewpointF,PressureIn,WindDirection,WindDirectionDegrees,WindSpeedMPH,WindSpeedGustMPH,Humidity,HourlyPrecipIn,Conditions,Clouds,dailyrainin,SolarRadiationWatts/m^2,SoftwareType,DateUTC
2013-02-23 00:01:00,53.0,53.0,-100.00,NNE,26,5.0,9.0,99,0.16,,,0.38,0.000000,,2013-02-23 06:01:00,
2013-02-23 00:32:00,52.0,52.0,-100.00,NNE,29,5.0,9.0,99,0.10,,,0.39,0.000000,,2013-02-23 06:32:00,
2013-02-23 00:42:00,52.0,52.0,-100.00,NNE,29,5.0,9.0,99,0.10,,,0.39,0.000000,,2013-02-23 06:42:00,
2013-02-23 00:52:00,52.0,52.0,-100.00,NNE,29,5.0,9.0,99,0.10,,,0.39,0.000000,,2013-02-23 06:52:00,
2013-02-23 01:01:00,52.0,52.0,-100.00,NNE,29,5.0,9.0,99,0.10,,,0.39,0.000000,,2013-02-23 07:01:00,
2013-02-23 01:32:00,52.0,52.0,-100.00,North,9,5.0,10.0,100,0.00,,,0.36,0.000000,,2013-02-23 07:32:00,
2013-02-23 01:42:00,52.0,52.0,-100.00,North,9,5.0,10.0,100,0.00,,,0.36,0.000000,,2013-02-23 07:42:00,
2013-02-23 01:52:00,52.0,52.0,-100.00,North,9,5.0,10.0,100,0.00,,,0.36,0.000000,,2013-02-23 07:52:00,
2013-02-23 02:01:00,52.0,52.0,-100.00,North,9,5.0,10.0,100,0.00,,,0.36,0.000000,,2013-02-23 08:01:00,
2013-02-23 02:32:00,52.0,52.0,-100.00,North,9,5.0,10.0,99,0.00,,,0.36,0.000000,,2013-02-23 08:32:00,
2013-02-23 02:42:00,52.0,52.0,-100.00,North,9,5.0,10.0,99,0.00,,,0.36,0.000000,,2013-02-23 08:42:00,
2013-02-23 02:52:00,52.0,52.0,-100.00,North,9,5.0,10.0,99,0.00,,,0.36,0.000000,,2013-02-23 08:52:00,
2013-02-23 03:01:00,52.0,52.0,-100.00,North,9,5.0,10.0,99,0.00,,,0.36,0.000000,,2013-02-23 09:01:00,
2013-02-23 03:32:00,52.0,51.0,-100.00,NNE,15,5.0,11.0,98,0.00,,,0.36,0.000000,,2013-02-23 09:32:00,
2013-02-23 03:42:00,52.0,51.0,-100.00,NNE,15,5.0,11.0,98,0.00,,,0.36,0.000000,,2013-02-23 09:42:00,
2013-02-23 03:52:00,52.0,51.0,-100.00,NNE,15,5.0,11.0,98,0.00,,,0.36,0.000000,,2013-02-23 09:52:00,
2013-02-23 04:01:00,52.0,51.0,-100.00,NNE,15,5.0,11.0,98,0.00,,,0.36,0.000000,,2013-02-23 10:01:00,
2013-02-23 04:32:00,52.0,51.0,-100.00,NNE,21,5.0,10.0,97,0.00,,,0.36,0.000000,,2013-02-23 10:32:00,
2013-02-23 04:42:00,52.0,51.0,-100.00,NNE,21,5.0,10.0,97,0.00,,,0.36,0.000000,,2013-02-23 10:42:00,
2013-02-23 04:52:00,52.0,51.0,-100.00,NNE,21,5.0,10.0,97,0.00,,,0.36,0.000000,,2013-02-23 10:52:00,
2013-02-23 05:02:00,52.0,51.0,-100.00,NNE,21,5.0,10.0,97,0.00,,,0.36,0.000000,,2013-02-23 11:02:00,
2013-02-23 05:32:00,51.0,50.0,-100.00,NNE,31,3.0,10.0,98,0.00,,,0.36,0.000000,,2013-02-23 11:32:00,
2013-02-23 05:42:00,51.0,50.0,-100.00,NNE,31,3.0,10.0,98,0.00,,,0.36,0.000000,,2013-02-23 11:42:00,
2013-02-23 05:52:00,51.0,50.0,-100.00,NNE,31,3.0,10.0,98,0.00,,,0.36,0.000000,,2013-02-23 11:52:00,
2013-02-23 06:02:00,51.0,50.0,-100.00,NNE,31,3.0,10.0,98,0.00,,,0.36,0.000000,,2013-02-23 12:02:00,
2013-02-23 06:32:00,51.0,50.0,-100.00,NNE,21,4.0,10.0,98,0.00,,,0.36,0.000000,,2013-02-23 12:32:00,
2013-02-23 06:42:00,51.0,50.0,-100.00,NNE,21,4.0,10.0,98,0.00,,,0.36,0.000000,,2013-02-23 12:42:00,
2013-02-23 06:52:00,51.0,50.0,-100.00,NNE,21,4.0,10.0,98,0.00,,,0.36,0.000000,,2013-02-23 12:52:00,
2013-02-23 07:01:00,51.0,50.0,-100.00,NNE,21,4.0,10.0,98,0.00,,,0.36,0.000000,,2013-02-23 13:01:00,
2013-02-23 07:32:00,51.0,50.0,-100.00,NE,41,5.0,10.0,98,0.00,,,0.35,6.000000,,2013-02-23 13:32:00,
2013-02-23 07:42:00,51.0,50.0,-100.00,NE,41,5.0,10.0,98,0.00,,,0.35,6.000000,,2013-02-23 13:42:00,
2013-02-23 07:52:00,51.0,50.0,-100.00,NE,41,5.0,10.0,98,0.00,,,0.35,6.000000,,2013-02-23 13:52:00,
2013-02-23 08:02:00,51.0,50.0,-100.00,NE,41,5.0,10.0,98,0.00,,,0.35,6.000000,,2013-02-23 14:02:00,
2013-02-23 08:33:00,53.0,51.0,-100.00,NNE,23,5.0,10.0,93,0.00,,,0.35,95.000000,,2013-02-23 14:33:00,
2013-02-23 08:42:00,53.0,51.0,-100.00,NNE,23,5.0,10.0,93,0.00,,,0.35,95.000000,,2013-02-23 14:42:00,
2013-02-23 08:52:00,53.0,51.0,-100.00,NNE,23,5.0,10.0,93,0.00,,,0.35,95.000000,,2013-02-23 14:52:00,
2013-02-23 09:02:00,53.0,51.0,-100.00,NNE,23,5.0,10.0,93,0.00,,,0.35,95.000000,,2013-02-23 15:02:00,
2013-02-23 09:32:00,55.0,52.0,-100.00,NE,34,5.0,9.0,88,0.00,,,0.35,168.000000,,2013-02-23 15:32:00,
2013-02-23 09:42:00,55.0,52.0,-100.00,NE,34,5.0,9.0,88,0.00,,,0.35,168.000000,,2013-02-23 15:42:00,
2013-02-23 09:52:00,55.0,52.0,-100.00,NE,34,5.0,9.0,88,0.00,,,0.35,168.000000,,2013-02-23 15:52:00,
2013-02-23 10:01:00,55.0,52.0,-100.00,NE,34,5.0,9.0,88,0.00,,,0.35,168.000000,,2013-02-23 16:01:00,
2013-02-23 10:32:00,58.0,52.0,-100.00,NE,37,5.0,10.0,79,0.00,,,-99.99,293.000000,,2013-02-23 16:32:00,
2013-02-23 10:42:00,58.0,52.0,-100.00,NE,37,5.0,10.0,79,0.00,,,-99.99,293.000000,,2013-02-23 16:42:00,
2013-02-23 10:52:00,58.0,52.0,-100.00,NE,37,5.0,10.0,79,0.00,,,-99.99,293.000000,,2013-02-23 16:52:00,
2013-02-23 11:01:00,58.0,52.0,-100.00,NE,37,5.0,10.0,79,0.00,,,-99.99,293.000000,,2013-02-23 17:01:00,
2013-02-23 11:32:00,58.0,51.0,-100.00,NNE,17,4.0,8.0,78,0.00,,,0.35,205.000000,,2013-02-23 17:32:00,
2013-02-23 11:42:00,58.0,51.0,-100.00,NNE,17,4.0,8.0,78,0.00,,,0.35,205.000000,,2013-02-23 17:42:00,
2013-02-23 11:52:00,58.0,51.0,-100.00,NNE,17,4.0,8.0,78,0.00,,,0.35,205.000000,,2013-02-23 17:52:00,
2013-02-23 12:01:00,58.0,51.0,-100.00,NNE,17,4.0,8.0,78,0.00,,,0.35,205.000000,,2013-02-23 18:01:00,
2013-02-23 12:32:00,58.0,51.0,-100.00,North,9,4.0,7.0,77,0.00,,,0.35,133.000000,,2013-02-23 18:32:00,
2013-02-23 12:42:00,58.0,51.0,-100.00,North,9,4.0,7.0,77,0.00,,,0.35,133.000000,,2013-02-23 18:42:00,
2013-02-23 12:52:00,58.0,51.0,-100.00,North,9,4.0,7.0,77,0.00,,,0.35,133.000000,,2013-02-23 18:52:00,
2013-02-23 13:01:00,58.0,51.0,-100.00,North,9,4.0,7.0,77,0.00,,,0.35,133.000000,,2013-02-23 19:01:00,
2013-02-23 13:32:00,59.0,51.0,-100.00,NNE,31,4.0,8.0,75,0.00,,,0.35,134.000000,,2013-02-23 19:32:00,
2013-02-23 13:42:00,59.0,51.0,-100.00,NNE,31,4.0,8.0,75,0.00,,,0.35,134.000000,,2013-02-23 19:42:00,
2013-02-23 13:52:00,59.0,51.0,-100.00,NNE,31,4.0,8.0,75,0.00,,,0.35,134.000000,,2013-02-23 19:52:00,
2013-02-23 14:01:00,59.0,51.0,-100.00,NNE,31,4.0,8.0,75,0.00,,,0.35,134.000000,,2013-02-23 20:01:00,
2013-02-23 14:32:00,61.0,50.0,-100.00,NE,48,5.0,10.0,68,0.00,,,0.35,257.000000,,2013-02-23 20:32:00,
2013-02-23 14:42:00,61.0,50.0,-100.00,NE,48,5.0,10.0,68,0.00,,,0.35,257.000000,,2013-02-23 20:42:00,
2013-02-23 14:53:00,61.0,50.0,-100.00,NE,48,5.0,10.0,68,0.00,,,0.35,257.000000,,2013-02-23 20:53:00,
2013-02-23 15:01:00,61.0,50.0,-100.00,NE,48,5.0,10.0,68,0.00,,,0.35,257.000000,,2013-02-23 21:01:00,
2013-02-23 15:32:00,62.0,51.0,-100.00,North,2,4.0,8.0,68,0.00,,,0.35,252.000000,,2013-02-23 21:32:00,
2013-02-23 15:42:00,62.0,51.0,-100.00,North,2,4.0,8.0,68,0.00,,,0.35,252.000000,,2013-02-23 21:42:00,
2013-02-23 15:52:00,62.0,51.0,-100.00,North,2,4.0,8.0,68,0.00,,,0.35,252.000000,,2013-02-23 21:52:00,
2013-02-23 16:01:00,62.0,51.0,-100.00,North,2,4.0,8.0,68,0.00,,,0.35,252.000000,,2013-02-23 22:01:00,
2013-02-23 16:32:00,62.0,51.0,-100.00,NNE,15,4.0,9.0,66,0.00,,,0.34,109.000000,,2013-02-23 22:32:00,
2013-02-23 16:42:00,62.0,51.0,-100.00,NNE,15,4.0,9.0,66,0.00,,,0.34,109.000000,,2013-02-23 22:42:00,
2013-02-23 16:52:00,62.0,51.0,-100.00,NNE,15,4.0,9.0,66,0.00,,,0.34,109.000000,,2013-02-23 22:52:00,
2013-02-23 17:01:00,62.0,51.0,-100.00,NNE,15,4.0,9.0,66,0.00,,,0.34,109.000000,,2013-02-23 23:01:00,
2013-02-23 17:32:00,61.0,52.0,-100.00,North,7,4.0,10.0,71,0.00,,,0.33,64.000000,,2013-02-23 23:32:00,
2013-02-23 17:42:00,61.0,52.0,-100.00,North,7,4.0,10.0,71,0.00,,,0.33,64.000000,,2013-02-23 23:42:00,
2013-02-23 17:52:00,61.0,52.0,-100.00,North,7,4.0,10.0,71,0.00,,,0.33,64.000000,,2013-02-23 23:52:00,
2013-02-23 18:01:00,61.0,52.0,-100.00,North,7,4.0,10.0,71,0.00,,,0.33,64.000000,,2013-02-24 00:01:00,
2013-02-23 18:32:00,56.0,52.0,-100.00,NW,310,0.0,6.0,85,0.00,,,0.33,27.000000,,2013-02-24 00:32:00,
2013-02-23 18:42:00,56.0,52.0,-100.00,NW,310,0.0,6.0,85,0.00,,,0.33,27.000000,,2013-02-24 00:42:00,
2013-02-23 18:52:00,56.0,52.0,-100.00,NW,310,0.0,6.0,85,0.00,,,0.33,27.000000,,2013-02-24 00:52:00,
2013-02-23 19:01:00,56.0,52.0,-100.00,NW,310,0.0,6.0,85,0.00,,,0.33,27.000000,,2013-02-24 01:01:00,
2013-02-23 19:32:00,54.0,50.0,-100.00,NNW,337,2.0,5.0,87,0.00,,,-99.99,0.000000,,2013-02-24 01:32:00,
2013-02-23 19:42:00,54.0,50.0,-100.00,NNW,337,2.0,5.0,87,0.00,,,-99.99,0.000000,,2013-02-24 01:42:00,
2013-02-23 19:52:00,54.0,50.0,-100.00,NNW,337,2.0,5.0,87,0.00,,,-99.99,0.000000,,2013-02-24 01:52:00,
2013-02-23 20:01:00,54.0,50.0,-100.00,NNW,337,2.0,5.0,87,0.00,,,-99.99,0.000000,,2013-02-24 02:01:00,
2013-02-23 20:32:00,52.0,49.0,-100.00,North,10,3.0,6.0,91,0.00,,,0.33,0.000000,,2013-02-24 02:32:00,
2013-02-23 20:42:00,52.0,49.0,-100.00,North,10,3.0,6.0,91,0.00,,,0.33,0.000000,,2013-02-24 02:42:00,
2013-02-23 20:52:00,52.0,49.0,-100.00,North,10,3.0,6.0,91,0.00,,,0.33,0.000000,,2013-02-24 02:52:00,
2013-02-23 21:01:00,52.0,49.0,-100.00,North,10,3.0,6.0,91,0.00,,,0.33,0.000000,,2013-02-24 03:01:00,
2013-02-23 21:32:00,50.0,48.0,-100.00,NNE,25,2.0,6.0,92,0.00,,,0.33,0.000000,,2013-02-24 03:32:00,
2013-02-23 21:42:00,50.0,48.0,-100.00,NNE,25,2.0,6.0,92,0.00,,,0.33,0.000000,,2013-02-24 03:42:00,
2013-02-23 21:52:00,50.0,48.0,-100.00,NNE,25,2.0,6.0,92,0.00,,,0.33,0.000000,,2013-02-24 03:52:00,
2013-02-23 22:01:00,50.0,48.0,-100.00,NNE,25,2.0,6.0,92,0.00,,,0.33,0.000000,,2013-02-24 04:01:00,
2013-02-23 22:32:00,48.0,46.0,-100.00,NE,50,1.0,4.0,94,0.00,,,-99.99,0.000000,,2013-02-24 04:32:00,
2013-02-23 22:42:00,48.0,46.0,-100.00,NE,50,1.0,4.0,94,0.00,,,-99.99,0.000000,,2013-02-24 04:42:00,
2013-02-23 22:52:00,48.0,46.0,-100.00,NE,50,1.0,4.0,94,0.00,,,-99.99,0.000000,,2013-02-24 04:52:00,
2013-02-23 23:01:00,48.0,46.0,-100.00,NE,50,1.0,4.0,94,0.00,,,-99.99,0.000000,,2013-02-24 05:01:00,
2013-02-23 23:32:00,46.0,45.0,-100.00,NE,41,2.0,4.0,95,0.00,,,0.10,0.000000,,2013-02-24 05:32:00,
2013-02-23 23:42:00,46.0,45.0,-100.00,NE,41,2.0,4.0,95,0.00,,,0.10,0.000000,,2013-02-24 05:42:00,
2013-02-23 23:52:00,46.0,45.0,-100.00,NE,41,2.0,4.0,95,0.00,,,0.10,0.000000,,2013-02-24 05:52:00,